Change the Weather History Date:

Sunday, July 13, 2014

  Actual Average Record
Temperature  
Mean Temperature 68 °F 68 °F  
Max Temperature 75 °F 82 °F 103 °F (1941)
Min Temperature 60 °F 53 °F 39 °F (1970)
Degree Days  
Heating Degree Days 0 1  
Month to date heating degree days 0 18  
Since 1 June heating degree days 66 148  
Since 1 July heating degree days 0 18  
Cooling Degree Days 3 3  
Month to date cooling degree days 107 33  
Year to date cooling degree days 142 70  
Since 1 June cooling degree days 126 61  
Growing Degree Days 18 (Base 50)    
Moisture  
Dew Point 58 °F    
Average Humidity 74    
Maximum Humidity 84    
Minimum Humidity 64    
Precipitation  
Precipitation 0.06 in 0.01 in 0.40 in (1920)
Month to date precipitation 0.06 0.26  
Year to date precipitation 22.07 21.35  
Sea Level Pressure  
Sea Level Pressure 30.09 in    
Wind  
Wind Speed 4 mph (WSW)    
Max Wind Speed 13 mph    
Max Gust Speed 16 mph    
Visibility 10 miles    
Events Rain , Thunderstorm    
T = Trace of Precipitation, MM = Missing Value Source: NWS Daily Summary

Daily Weather History Graph

Daily Weather History Graph

Search for Another Location

Airport or City:

Trip Planner

Search our weather history database for the weather conditions in past years. The results will help you decide how hot, cold, wet, or windy it might be!

Date:

Astronomy

Jul. 13, 2014 Rise Set
Actual Time 5:38 AM PDT 8:56 PM PDT
Civil Twilight 5:02 AM PDT 9:32 PM PDT
Nautical Twilight 4:15 AM PDT 10:19 PM PDT
Astronomical Twilight 3:16 AM PDT 11:17 PM PDT
Moon 9:40 PM PDT (7/13) 7:21 AM PDT (7/13)
Length of Visible Light 16h 30m
Length of Day
15h 18m
Full, 97% of the Moon is Illuminated
Jul 13
Full
Jul 18
Last Quarter
Jul 26
New
Aug 3
First Quarter
Aug 10
Full

Hourly Weather History & Observations

Time (PDT) Temp. Dew Point Humidity Pressure Visibility Wind Dir Wind Speed Gust Speed Precip Events Conditions
12:56 AM 64.9 °F 57.0 °F 75% 30.06 in 10.0 mi West 3.5 mph - N/A   Clear
1:56 AM 63.0 °F 57.0 °F 81% 30.06 in 10.0 mi West 3.5 mph - N/A   Clear
2:56 AM 63.0 °F 57.0 °F 81% 30.06 in 10.0 mi West 4.6 mph - N/A   Clear
3:56 AM 62.1 °F 55.9 °F 80% 30.06 in 10.0 mi West 4.6 mph - N/A   Clear
4:56 AM 61.0 °F 55.9 °F 83% 30.06 in 10.0 mi NW 4.6 mph - N/A   Clear
5:56 AM 60.1 °F 55.9 °F 86% 30.06 in 10.0 mi West 3.5 mph - N/A   Clear
6:56 AM 60.1 °F 55.9 °F 86% 30.08 in 10.0 mi Calm Calm - N/A   Clear
7:56 AM 64.0 °F 55.9 °F 75% 30.08 in 10.0 mi Calm Calm - N/A   Clear
8:44 AM 64.0 °F 57.0 °F 78% 30.08 in 10.0 mi Calm Calm - N/A Thunderstorm Thunderstorm
8:56 AM 64.0 °F 59.0 °F 84% 30.08 in 7.0 mi SSE 3.5 mph - 0.02 in Rain , Thunderstorm Thunderstorms and Rain
9:34 AM 64.9 °F 59.0 °F 81% 30.08 in 10.0 mi ESE 3.5 mph - 0.00 in   Partly Cloudy
9:56 AM 64.9 °F 57.9 °F 78% 30.09 in 10.0 mi Calm Calm - 0.00 in   Scattered Clouds
10:31 AM 64.9 °F 59.0 °F 81% 30.08 in 10.0 mi Variable 3.5 mph - N/A Thunderstorm Overcast
10:39 AM 64.9 °F 59.0 °F 81% 30.10 in 10.0 mi South 9.2 mph - N/A Thunderstorm Thunderstorm
10:53 AM 64.4 °F 59.0 °F 83% 30.08 in 10.0 mi ESE 4.6 mph - N/A Thunderstorm Scattered Clouds
10:54 AM 64.9 °F 59.0 °F 81% 30.08 in 10.0 mi SE 5.8 mph - N/A Thunderstorm Scattered Clouds
11:01 AM 64.9 °F 59.0 °F 81% 30.09 in 10.0 mi South 8.1 mph - N/A   Partly Cloudy
11:34 AM 64.0 °F 57.9 °F 80% 30.11 in 10.0 mi South 5.8 mph - N/A Thunderstorm Thunderstorm
11:56 AM 64.0 °F 59.0 °F 84% 30.07 in 8.0 mi Calm Calm - 0.01 in Rain Light Rain
12:03 PM 64.0 °F 59.0 °F 84% 30.08 in 10.0 mi Calm Calm - 0.00 in Rain , Thunderstorm Light Thunderstorms and Rain
12:56 PM 63.0 °F 60.1 °F 90% 30.11 in 10.0 mi SSW 6.9 mph - N/A Rain , Thunderstorm Light Thunderstorms and Rain
1:56 PM 66.0 °F 61.0 °F 84% 30.08 in 10.0 mi SW 5.8 mph - 0.02 in Rain , Thunderstorm Light Thunderstorms and Rain
2:09 PM 66.9 °F 61.0 °F 81% 30.09 in 10.0 mi SW 6.9 mph - 0.00 in Thunderstorm Mostly Cloudy
2:16 PM 68.0 °F 61.0 °F 78% 30.09 in 10.0 mi SSW 5.8 mph - 0.00 in   Mostly Cloudy
2:44 PM 68.0 °F 60.1 °F 76% 30.07 in 10.0 mi Variable 3.5 mph - 0.00 in   Mostly Cloudy
2:56 PM 68.0 °F 60.1 °F 76% 30.09 in 10.0 mi North - - 0.00 in   Overcast
3:56 PM 72.0 °F 61.0 °F 68% 30.08 in 10.0 mi Variable 3.5 mph - N/A   Mostly Cloudy
4:56 PM 72.0 °F 62.1 °F 71% 30.07 in 10.0 mi West 8.1 mph - N/A   Mostly Cloudy
5:52 PM 73.4 °F 60.8 °F 65% 30.08 in 10.0 mi West 8.1 mph - N/A   Scattered Clouds
5:56 PM 73.9 °F 61.0 °F 64% 30.08 in 10.0 mi West 5.8 mph - N/A   Scattered Clouds
6:56 PM 73.0 °F 61.0 °F 66% 30.07 in 10.0 mi WNW 8.1 mph - N/A   Scattered Clouds
7:56 PM 68.0 °F 57.9 °F 70% 30.09 in 10.0 mi WNW 11.5 mph - N/A   Clear
8:31 PM 66.0 °F 57.9 °F 75% 30.10 in 10.0 mi West 9.2 mph - N/A   Partly Cloudy
8:56 PM 64.0 °F 57.0 °F 78% 30.11 in 10.0 mi West 4.6 mph - N/A   Clear
9:56 PM 63.0 °F 55.9 °F 78% 30.13 in 10.0 mi West 8.1 mph - N/A   Overcast
10:56 PM 62.1 °F 55.0 °F 78% 30.14 in 10.0 mi Calm Calm - N/A   Partly Cloudy
11:56 PM 62.1 °F 55.9 °F 80% 30.14 in 10.0 mi WNW 3.5 mph - N/A   Overcast